Portada
METAR-TAF:

METAR-TAF

Aeroports :

Birdsville, Austràlia

latitud: 25-53-51S, longitud: 139-20-51E, altitud: 48 m

Observació

L'informe es va fer fa 26 minuts, a les 00:00 UTC
Vent 25 kt del Sud/Sud-Oest
Temperatura 25°C
Humitat 36%
Pressió 1010 hPa

METAR: YBDV 210000Z AUTO 20025KT //// // ////// 25/09 Q1010

Hora: 10:26 (00:26 UTC)


TAF: manca

Observacions i pronòstics meteorològics de més de 4000 aeroports (METAR i TAF).

Les estacions disponibles són els punts grocs i vermells al mapa.

Posi el ratolí al punt desitjat per veure el nom de l'estació.

Feu clic per veure les observacions i els pronòstics meteorològics.

Per canviar el mapa: feu clic els botons verds amb una creu de color negre per apropar; al botó verd amb un guió per allunyar la imatge; o en les fletxes verdes per a mapes adjacents.


METAR-TAF: